Wind_Speed
27 27 27 27 27 26 25 25 23 22 21 21 21 21 20 20 20 20 20 20 20 19 19 18 18 18 18 17 17 16 16 16 16 16 16 16 15 14 13 12 11 11 12 13 12 12 12 12 10 8 8 8 8 8 7 7 6 7 9 12 13 14 14 14 13 11 10 9 9 9 9 10 10 11 11 12 12 11 10 9 8 8 8 8 8
27 27 28 28 27 26 26 25 23 22 22 22 21 21 21 21 21 21 21 21 21 20 19 18 18 18 18 17 17 16 16 16 16 16 15 16 15 14 13 13 11 12 13 13 13 13 13 12 10 8 8 8 8 8 8 7 7 7 9 12 13 14 14 14 13 11 10 9 9 9 10 10 11 11 11 12 12 11 10 9 8 8 8 8 8
27 27 28 28 27 26 26 24 23 22 22 22 22 22 21 21 21 22 23 23 22 20 19 18 18 18 18 17 17 17 17 17 16 15 15 15 15 15 14 13 12 12 13 14 14 13 13 13 11 9 8 8 9 9 9 8 7 7 9 12 14 15 15 15 13 12 11 10 9 10 10 10 11 12 12 12 13 12 11 9 9 8 8 8 8
26 28 29 28 27 26 26 24 24 23 23 22 22 22 22 23 23 24 24 23 22 21 20 19 18 18 18 18 18 17 18 18 17 16 14 14 15 15 15 14 13 13 13 14 14 14 14 13 11 9 8 8 9 9 9 9 8 7 8 11 14 15 15 14 13 12 11 10 10 10 10 10 11 12 12 13 13 12 11 10 9 8 8 8 8
26 29 28 27 27 26 26 24 23 23 23 22 22 22 23 23 23 24 24 24 23 22 21 19 19 18 18 18 18 18 19 19 18 17 15 14 14 15 15 15 14 14 13 13 14 14 14 14 12 10 9 9 9 10 10 10 8 7 8 11 14 15 15 15 14 13 11 10 10 10 10 10 10 11 12 13 13 13 12 11 10 9 8 8 8
28 28 28 28 27 26 25 24 23 22 23 23 23 23 23 24 25 25 25 25 24 23 21 20 19 18 18 19 19 19 19 19 18 18 17 15 14 15 15 15 15 14 14 13 13 14 15 14 13 10 9 9 9 10 10 10 10 8 8 11 14 15 15 15 15 13 12 11 10 10 10 10 10 11 11 13 14 13 12 11 10 10 9 8 8
28 27 28 27 26 25 24 23 22 22 23 23 23 23 24 25 26 26 26 26 25 23 22 21 20 19 19 19 20 20 20 20 19 18 18 16 15 15 15 16 16 15 14 13 13 14 15 15 14 11 10 10 10 10 11 11 11 9 9 11 13 15 15 15 15 14 12 11 11 11 10 10 10 10 11 12 13 14 13 12 11 10 10 9 8
28 27 27 26 26 25 24 23 22 23 23 23 23 23 24 25 26 26 26 26 25 24 22 21 21 20 20 20 21 21 21 20 19 19 18 17 15 15 16 16 16 16 15 14 13 13 15 15 15 13 11 11 10 11 12 12 12 11 10 11 13 15 16 16 16 15 14 13 12 12 11 10 10 10 10 11 13 14 14 13 12 11 10 10 8
29 28 27 27 26 25 24 23 23 24 23 24 24 24 25 26 26 26 26 25 25 24 22 22 21 21 21 21 21 22 21 21 20 19 18 17 16 16 16 16 17 17 16 15 14 13 14 15 16 15 13 11 11 11 13 13 14 13 11 11 12 15 17 17 17 17 16 14 13 13 12 12 11 11 11 11 12 14 14 13 12 11 11 10 9
28 27 27 26 25 24 24 24 24 24 23 24 24 25 25 26 26 26 25 25 24 23 22 22 22 22 22 22 22 22 22 21 20 19 18 17 17 16 17 17 17 17 17 15 14 14 14 15 16 16 15 13 12 12 13 14 14 14 13 12 12 15 17 18 18 17 16 15 15 14 14 13 13 12 12 12 13 14 14 13 12 12 11 11 10
25 24 25 24 25 25 25 25 24 24 24 24 24 25 26 27 27 25 25 24 23 22 23 23 23 23 23 23 23 22 22 21 20 19 18 17 17 16 17 17 17 17 17 16 14 14 14 15 16 17 17 15 13 12 12 14 15 15 15 13 12 14 17 19 19 18 17 17 17 15 14 14 13 13 13 13 13 14 14 14 13 12 11 11 10
25 24 24 25 25 25 25 25 24 24 24 24 24 25 26 27 26 26 25 23 22 22 22 23 23 24 24 23 23 22 22 21 20 19 19 18 17 17 17 16 16 16 16 15 14 13 14 15 16 17 17 16 14 13 12 13 15 16 16 14 12 13 17 20 21 20 20 19 18 16 16 16 15 15 14 14 14 13 13 13 13 12 12 11 11
27 26 26 25 26 25 24 24 24 24 24 25 25 25 26 26 26 25 24 23 22 22 23 23 24 24 24 24 23 23 22 21 21 20 19 18 17 16 16 16 16 16 16 15 13 12 13 14 16 17 18 17 16 14 13 13 14 16 16 15 13 13 16 19 21 22 21 20 18 18 19 18 17 16 15 15 14 13 14 14 13 13 13 12 12
26 26 26 26 26 25 24 25 25 25 25 25 25 25 25 26 26 25 24 23 23 23 23 24 24 24 24 24 23 23 22 22 21 20 20 19 17 17 16 16 16 16 16 16 14 13 13 14 15 17 18 17 16 15 14 14 14 15 17 16 15 14 15 18 21 21 21 22 21 20 20 19 18 17 16 15 15 14 14 14 14 14 13 13 12
26 27 27 27 26 26 26 27 27 26 26 25 25 25 26 25 25 25 24 23 23 23 24 25 25 25 25 25 24 23 23 22 21 21 20 18 17 17 16 16 16 16 16 16 15 14 13 14 15 16 17 17 16 16 16 15 15 16 17 17 16 15 15 17 20 22 23 23 22 21 20 19 19 18 17 16 15 16 16 15 15 15 14 14 13
28 28 27 27 27 27 28 28 27 26 26 26 26 26 26 26 25 24 24 23 23 24 24 25 26 26 26 25 24 24 23 22 21 21 20 18 17 17 16 15 16 16 17 17 17 16 14 14 14 15 17 17 16 16 16 16 16 16 17 17 18 17 16 16 18 22 24 24 22 21 20 19 19 18 17 17 16 16 16 16 16 16 15 15 15
29 29 29 29 29 29 28 28 27 26 25 25 25 25 25 25 24 23 23 24 24 24 25 26 26 27 27 26 25 24 23 22 22 21 19 18 16 16 15 15 16 16 17 17 17 17 15 14 14 15 16 17 17 17 17 17 17 18 18 18 19 19 17 16 17 20 24 25 23 22 21 20 20 19 18 18 17 17 17 17 16 16 16 16 15
31 31 31 30 29 29 28 27 27 26 25 24 24 24 23 23 23 23 23 24 24 25 26 27 28 29 28 26 26 25 24 22 22 21 18 17 16 16 16 16 16 17 17 18 17 17 17 16 15 15 15 17 18 18 18 17 18 18 19 19 19 20 19 18 17 18 23 24 23 23 23 21 21 20 20 19 19 18 18 17 17 16 16 16 16
33 33 32 31 30 29 27 26 25 25 24 24 24 23 22 23 23 23 23 24 24 26 27 29 30 30 29 27 26 25 24 23 21 20 18 16 15 16 16 16 16 17 18 18 18 18 18 18 17 16 16 17 17 18 18 18 18 19 20 20 20 21 21 20 18 18 20 22 24 25 25 23 23 22 21 21 20 19 18 18 18 17 17 17 16
34 33 32 31 28 26 25 23 23 23 23 23 23 23 22 22 23 24 24 24 25 27 28 30 31 30 28 27 26 25 24 23 21 19 17 16 16 17 17 16 17 17 18 19 19 19 19 19 18 18 17 17 17 18 19 19 19 19 20 21 22 22 22 22 21 19 18 20 24 27 27 26 24 23 23 22 21 21 20 19 19 18 17 17 17
34 33 30 26 23 21 21 21 22 22 22 22 22 22 22 22 23 24 25 25 25 27 28 30 31 29 26 26 26 25 24 24 21 19 17 17 17 18 18 18 18 19 20 20 21 21 21 20 20 19 18 18 17 18 19 20 20 20 21 22 23 23 23 24 23 20 17 18 25 28 28 27 26 25 24 24 23 22 21 21 20 19 18 18 17
33 31 29 26 24 22 20 21 22 21 22 23 22 22 22 23 24 25 25 25 25 26 27 29 27 24 23 24 24 25 24 22 20 19 18 18 19 19 20 20 20 21 22 22 23 23 23 22 22 22 21 19 19 19 19 20 21 21 21 22 23 24 24 25 24 22 18 18 24 28 29 28 27 26 25 25 24 24 23 22 21 20 20 19 18
27 26 26 25 23 22 21 21 22 23 24 24 23 23 23 24 26 26 25 24 24 25 27 27 23 21 22 23 22 22 23 22 21 20 19 19 19 20 21 21 22 23 23 24 25 25 25 24 24 24 23 22 21 21 21 21 21 22 22 23 24 24 25 26 26 25 20 17 22 27 29 30 29 28 27 26 25 24 23 22 21 21 20 19 18
19 20 21 22 21 21 21 22 24 25 25 25 24 24 24 25 26 26 25 25 24 25 27 26 24 23 23 22 20 19 19 20 20 20 19 18 18 19 20 22 22 23 23 24 24 25 25 25 25 25 25 24 23 23 22 21 21 22 23 24 24 25 26 27 27 27 22 18 20 25 29 31 30 30 29 27 26 25 24 23 22 21 20 19 18
20 19 20 21 21 21 23 24 25 26 27 26 25 24 25 25 26 25 25 26 24 25 26 25 24 24 24 23 21 19 17 16 17 17 17 16 17 17 18 19 20 21 22 22 21 22 22 23 23 24 24 25 25 25 24 23 22 23 24 24 25 24 26 28 28 28 24 21 21 23 27 30 31 31 30 30 28 27 26 25 23 22 21 20 18
16 18 19 20 22 23 24 25 26 27 27 27 26 25 25 25 25 25 26 25 24 26 26 25 24 24 24 23 21 21 19 16 16 17 16 15 14 14 16 16 17 19 19 18 18 18 19 20 22 22 23 24 25 25 25 25 24 24 24 24 25 24 26 27 28 28 25 25 24 24 26 29 31 32 31 31 31 30 28 26 25 24 23 21 20
11 15 18 19 21 22 24 24 25 26 26 26 26 27 26 25 24 24 25 25 26 27 26 25 24 24 24 23 21 20 19 17 16 17 17 15 13 13 15 15 15 16 16 16 16 17 18 19 21 22 23 24 25 25 25 25 25 24 24 24 25 25 26 26 28 28 26 27 28 26 26 28 31 32 33 32 32 31 30 28 27 26 24 23 22
8 12 16 17 18 20 22 22 23 25 25 26 26 26 25 24 23 23 24 26 27 27 25 24 24 24 23 21 19 18 18 17 16 16 17 16 15 14 14 13 14 14 14 15 16 16 17 18 20 22 23 24 24 25 25 25 25 25 24 23 24 25 26 26 26 27 27 28 30 28 26 27 30 32 34 34 33 32 31 30 28 27 26 25 24
11 13 16 17 17 18 21 21 22 24 25 26 27 26 24 23 23 23 24 25 26 27 26 25 24 24 22 19 16 16 16 16 15 15 15 16 16 15 13 12 13 14 15 15 16 16 16 17 18 20 22 23 24 25 26 25 25 25 25 24 24 25 26 26 26 27 27 30 32 31 28 27 28 32 34 35 34 33 32 31 30 29 28 27 27
18 18 18 19 18 17 20 22 23 24 26 27 27 27 25 23 23 22 22 22 23 24 24 23 23 23 22 18 14 14 14 14 14 14 15 15 15 15 14 13 14 16 16 16 17 17 17 17 18 19 19 20 21 24 25 25 25 25 25 25 26 26 26 27 27 28 29 29 32 33 30 28 27 29 33 35 35 34 33 32 31 31 31 30 29
24 22 19 19 19 20 20 22 24 26 27 27 27 28 27 26 23 21 20 20 20 21 22 21 21 21 22 20 16 14 14 14 14 14 15 14 14 15 15 15 16 17 16 16 17 18 19 18 18 18 17 18 19 21 24 25 25 24 25 25 26 27 27 27 28 30 31 29 31 33 31 29 27 27 30 33 35 35 34 33 33 32 32 31 31
26 22 20 19 20 22 21 22 24 26 27 27 27 27 27 26 23 21 19 18 18 20 21 20 19 19 21 21 17 15 15 15 14 14 14 14 15 16 16 16 17 18 17 17 18 19 19 18 17 16 16 17 17 19 22 23 24 24 24 25 26 27 28 28 29 31 33 30 30 33 33 31 28 26 28 31 34 36 35 35 34 34 33 32 32
24 21 21 21 21 23 23 24 25 26 27 27 26 26 25 24 22 21 20 18 18 19 20 19 19 19 19 19 17 16 16 16 15 14 14 15 16 17 18 18 18 19 19 18 18 17 16 15 15 14 13 15 16 17 19 22 22 23 24 25 26 27 28 29 30 31 32 30 30 32 34 33 30 27 28 30 32 35 36 36 36 35 34 33 32
23 23 22 22 23 23 24 26 26 27 27 27 26 25 24 23 22 21 21 19 18 19 20 20 19 18 18 19 19 18 17 17 16 15 14 15 17 18 18 19 19 19 20 19 17 15 13 13 14 14 14 14 16 17 18 20 22 22 23 24 25 27 28 29 30 31 31 31 31 32 34 35 33 30 29 29 30 33 35 36 36 36 35 35 34
22 24 24 24 24 24 25 27 27 28 28 27 26 25 24 23 23 22 22 21 19 19 21 21 19 18 18 19 19 19 18 17 16 15 15 16 18 19 20 20 19 19 18 17 16 16 17 17 15 14 15 15 17 17 17 19 21 22 22 23 25 26 28 29 30 30 30 32 33 32 34 37 36 32 31 30 30 31 34 36 36 36 36 36 35
23 25 25 24 25 25 26 27 28 28 28 27 25 24 24 23 23 23 23 22 21 20 21 21 20 19 19 19 20 19 18 18 17 16 17 17 19 21 22 22 21 20 19 17 16 17 18 19 16 15 16 17 17 18 18 19 19 21 21 21 24 26 27 29 30 29 30 31 32 32 34 38 38 35 33 31 30 31 32 34 35 36 37 37 36
25 25 25 25 26 26 26 26 27 26 26 24 23 23 24 24 24 23 23 23 23 23 22 22 21 21 20 19 19 19 19 20 19 19 19 19 20 22 23 24 22 22 21 20 19 18 18 19 18 17 18 18 18 19 20 20 20 20 20 20 22 25 26 28 29 29 29 30 30 31 33 37 40 36 34 32 31 31 31 32 34 35 36 36 37
25 25 26 26 26 25 25 24 24 23 22 21 21 22 23 24 24 24 24 24 24 24 24 23 23 22 22 21 20 19 20 20 21 21 22 22 22 23 24 25 24 22 22 22 20 19 20 20 19 18 19 20 20 21 21 21 22 22 19 19 21 23 24 26 27 28 29 30 29 30 31 34 40 40 37 35 34 32 30 31 32 33 34 35 36
25 27 27 26 26 25 24 22 22 21 19 19 20 21 23 23 24 24 24 24 25 24 24 24 24 24 23 23 23 22 21 22 22 23 24 24 25 25 26 27 26 24 24 22 20 20 21 20 19 19 20 20 21 22 22 23 24 22 19 20 20 20 20 22 25 27 30 31 30 31 31 33 39 42 40 38 36 33 31 30 30 30 32 33 34
26 27 27 26 25 24 22 22 21 20 19 19 20 21 23 24 24 24 24 24 25 25 25 25 25 25 24 25 25 24 24 24 25 25 25 26 26 26 27 27 27 26 25 23 21 21 21 21 21 21 20 21 22 22 23 23 24 23 21 21 20 19 19 19 22 26 30 33 31 30 30 31 36 41 41 39 37 35 33 31 30 30 31 32 33
26 27 26 25 23 22 22 22 21 20 19 19 20 21 22 23 24 24 25 25 25 25 25 25 25 25 25 25 26 26 26 26 27 27 27 27 27 27 27 27 27 26 26 24 23 22 22 23 23 22 22 23 24 24 24 24 24 24 23 22 22 21 21 20 22 24 27 29 31 31 30 30 33 38 41 40 39 37 35 34 33 32 31 31 32
24 25 24 23 22 22 22 21 21 20 19 19 19 20 21 22 23 23 24 25 25 25 25 25 25 25 25 25 26 26 27 27 28 28 28 28 28 28 28 27 27 27 26 25 25 24 24 24 23 24 24 24 25 25 25 25 25 25 24 24 23 22 22 22 23 25 25 25 27 30 31 31 32 36 40 40 41 40 37 37 36 35 33 33 33
22 23 22 22 21 22 22 21 20 20 19 19 19 19 20 20 21 22 23 23 24 24 24 25 25 25 25 25 26 26 27 27 28 28 28 28 28 28 28 27 27 27 26 26 26 25 25 24 24 25 25 24 25 25 25 25 26 24 24 25 23 22 23 23 25 26 26 26 27 28 29 31 33 34 38 40 41 41 40 39 39 38 37 36 34
20 20 20 21 22 22 22 21 20 21 20 19 19 20 20 20 20 21 21 22 23 23 24 24 24 25 25 25 25 26 26 27 27 28 28 28 28 28 27 27 27 27 26 25 25 25 25 24 24 25 25 25 24 24 24 25 24 23 24 25 24 24 24 25 25 25 25 25 26 27 26 29 34 36 37 38 39 40 41 42 41 40 39 38 36
18 18 19 21 22 23 23 22 21 22 21 20 20 20 20 20 20 20 21 22 22 22 23 24 24 24 25 25 25 25 25 26 26 27 28 28 28 27 27 27 26 26 26 25 25 25 25 24 24 24 25 26 25 25 24 23 22 21 23 25 24 25 25 25 26 25 23 22 22 23 23 25 32 37 38 38 38 39 40 41 42 42 41 40 38
17 18 19 21 23 23 24 24 23 23 23 21 21 21 21 21 20 20 21 21 22 22 23 23 24 24 24 24 24 24 25 25 25 26 26 27 27 27 27 27 26 26 25 25 25 25 25 24 23 23 25 26 25 25 24 23 22 22 24 24 24 25 26 25 26 25 24 23 21 19 19 21 27 34 39 39 37 37 37 38 41 42 43 42 40
17 18 20 22 23 24 26 26 25 25 25 23 22 22 22 21 21 20 21 21 21 22 22 23 23 24 24 23 23 24 24 24 24 24 25 25 25 25 26 26 26 25 25 25 24 24 24 24 23 23 24 25 25 24 24 24 23 22 23 24 24 25 25 24 23 23 24 24 22 19 19 21 24 29 33 35 35 36 37 38 40 42 43 43 43
15 16 19 21 23 25 27 27 27 28 28 25 24 24 23 22 22 21 21 21 21 21 21 22 22 22 22 22 22 23 23 24 24 24 23 23 24 24 24 24 24 24 24 24 23 23 23 23 23 23 23 24 25 24 23 23 23 22 23 25 25 26 26 24 23 23 22 20 20 19 19 19 21 26 28 29 31 34 36 37 39 41 41 42 43
15 15 19 22 25 27 28 29 29 30 30 28 25 25 25 24 24 23 22 21 21 21 21 21 21 21 21 21 21 22 22 22 22 22 22 22 22 22 23 23 23 23 23 23 23 23 22 22 23 23 23 24 25 25 23 22 22 22 23 24 25 26 27 27 26 26 25 24 22 22 22 20 18 20 23 25 28 32 36 38 38 39 38 38 42
18 18 21 24 27 28 29 30 31 31 32 30 27 27 27 26 26 24 22 21 21 21 20 20 19 19 19 20 20 20 21 21 21 21 21 21 21 21 21 22 22 22 22 22 22 22 22 22 22 22 23 23 24 25 24 22 21 21 22 23 24 25 25 26 26 27 28 28 27 26 26 25 22 19 18 20 23 27 32 35 36 39 40 40 40
22 23 25 27 29 30 31 32 32 32 34 33 29 28 28 28 27 25 22 21 21 20 20 19 19 19 19 18 19 19 19 19 19 19 19 19 20 20 20 20 21 21 21 21 21 22 22 22 22 22 22 23 23 24 25 23 21 20 21 22 23 23 23 23 24 25 26 26 27 27 27 26 24 22 21 20 20 21 25 28 30 32 37 42 43
Wind_Direction
262 262 262 262 262 262 264 266 269 271 275 277 280 281 281 280 279 280 280 280 280 281 282 284 286 288 289 288 285 283 283 283 286 288 287 287 287 284 280 274 264 257 251 244 240 240 239 241 242 237 230 221 218 214 212 212 201 197 194 193 198 200 197 196 194 191 189 185 182 174 172 174 170 165 161 159 158 156 148 140 132 124 120 118 113
258 259 260 260 260 261 263 266 269 271 275 278 281 281 282 281 281 282 282 281 280 281 282 284 286 288 289 287 285 283 282 282 283 285 286 286 284 282 278 273 265 255 249 243 237 237 238 239 241 235 229 221 217 215 211 214 209 202 195 193 196 198 198 198 195 192 192 189 186 180 179 179 173 168 163 162 162 161 155 147 140 132 127 125 120
257 256 257 258 260 261 263 265 269 272 275 278 281 283 284 284 284 284 283 282 280 280 282 284 286 288 288 287 285 282 281 280 280 281 284 285 282 279 275 271 265 255 247 242 236 234 237 238 240 234 227 222 216 215 213 215 215 209 198 194 197 198 200 199 195 193 194 192 188 186 186 184 178 172 166 166 166 165 161 154 148 140 134 132 128
256 255 256 258 259 260 263 265 268 272 275 278 281 284 286 286 287 286 285 282 281 280 282 284 285 286 287 286 284 281 279 278 278 279 281 282 280 276 272 269 264 256 246 240 236 233 235 237 241 238 228 224 217 214 214 215 218 216 203 196 198 201 201 198 195 194 194 195 193 192 192 190 184 177 171 169 169 169 166 160 155 147 141 138 135
254 255 255 256 257 259 262 265 268 271 274 278 282 285 286 288 288 287 285 284 282 281 282 282 283 285 285 284 283 280 279 278 278 279 280 280 277 272 268 266 262 256 248 239 235 232 233 235 242 244 233 226 219 214 214 216 218 219 207 196 200 202 200 198 197 193 193 195 197 199 198 194 189 182 176 172 172 173 170 165 159 154 149 144 140
254 254 253 254 256 258 262 264 266 270 275 280 283 285 287 288 289 287 285 284 282 281 281 281 282 283 284 282 281 280 278 278 278 279 280 279 275 269 265 262 259 254 249 239 233 230 230 233 240 248 240 231 222 215 214 216 218 220 209 200 202 200 198 198 196 194 193 194 197 203 204 201 194 188 181 176 175 176 175 170 165 160 155 150 146
252 251 252 253 255 259 261 263 266 270 276 281 284 286 287 288 289 287 284 283 283 282 281 281 281 281 281 280 279 279 278 278 278 279 280 280 277 270 263 259 255 251 248 240 232 229 228 230 237 247 246 237 226 217 214 216 219 221 212 205 204 198 198 198 196 194 193 194 197 201 205 207 202 193 188 183 178 178 178 174 170 165 160 156 153
247 248 251 253 257 260 261 263 266 271 276 281 284 286 287 288 288 287 285 284 283 283 281 279 279 280 278 277 277 277 277 277 278 280 281 281 278 272 263 257 252 247 246 242 234 229 227 228 234 243 246 242 232 219 214 215 219 221 217 211 204 197 196 198 196 193 192 194 197 198 200 207 209 200 194 190 184 180 181 178 174 170 165 161 160
247 249 251 255 259 260 262 265 268 272 278 281 284 286 287 288 288 287 286 285 285 283 280 278 278 277 276 275 275 275 277 277 279 280 281 281 278 272 265 258 251 245 243 242 236 230 226 226 230 239 244 244 237 223 216 216 219 221 222 217 205 197 195 197 199 194 192 193 195 198 197 201 207 205 199 194 190 184 183 182 179 175 171 166 164
247 250 253 255 257 259 262 266 269 274 278 281 284 287 288 288 287 286 286 286 286 283 278 277 277 275 274 273 273 275 276 277 279 280 281 280 277 272 267 260 253 246 243 241 236 230 226 224 228 236 242 243 241 231 221 218 219 221 223 222 209 200 196 197 200 198 194 193 194 198 199 200 202 205 203 198 195 190 185 184 183 181 177 172 169
247 249 252 254 255 259 263 266 270 274 278 282 285 287 287 286 286 285 285 286 286 281 276 275 274 273 272 272 273 274 276 277 278 279 280 279 277 273 269 262 253 246 242 240 236 232 226 223 227 235 241 243 243 239 230 221 220 222 223 224 216 205 199 197 199 198 194 196 197 196 200 201 202 203 205 202 198 194 189 187 187 186 183 179 176
250 249 251 252 255 260 263 266 270 275 279 283 285 286 285 284 284 285 286 286 284 279 275 273 272 271 271 272 273 274 275 277 278 279 278 278 276 274 270 263 252 242 238 239 237 235 228 223 226 233 241 243 243 242 237 226 222 223 224 225 220 213 205 199 199 197 195 199 198 195 199 201 202 202 204 205 201 198 195 191 189 190 189 187 183
250 249 249 251 256 259 262 267 272 277 282 285 286 285 282 282 283 285 286 285 282 278 275 273 272 271 271 272 273 274 275 276 277 278 278 278 276 272 267 260 251 239 231 234 236 235 231 226 226 231 238 243 244 243 240 231 226 225 226 225 222 220 212 206 203 198 196 199 196 198 202 200 201 202 203 203 202 202 200 195 192 193 192 193 190
248 249 251 254 256 258 262 269 274 278 283 285 285 283 282 282 283 285 285 284 281 278 276 273 271 270 270 271 272 273 274 276 278 279 280 279 275 268 262 255 247 236 227 228 234 233 230 228 227 230 236 241 243 243 241 236 229 227 228 227 225 224 218 212 208 200 199 200 195 200 206 203 202 202 203 202 202 203 203 200 196 196 195 197 195
251 253 256 257 258 261 266 271 274 279 282 282 281 280 281 283 284 284 283 283 281 279 276 273 271 270 270 270 271 272 274 276 279 280 280 277 272 265 258 251 243 236 227 224 230 232 229 228 227 229 234 239 241 242 241 239 234 229 228 229 228 227 224 218 211 202 202 203 196 201 207 206 206 203 203 202 202 204 204 203 199 198 198 199 199
255 255 256 258 262 267 271 273 276 278 278 279 279 279 281 283 284 282 282 281 280 277 274 273 272 271 270 271 271 272 274 276 278 279 278 274 268 261 254 248 242 237 231 226 229 232 230 228 228 229 232 236 240 240 240 240 239 234 230 228 229 230 229 225 216 206 205 204 198 203 207 207 211 207 205 203 204 205 205 205 202 201 201 202 202
253 254 257 261 265 269 272 275 275 276 277 279 279 280 282 283 283 282 282 280 278 276 274 272 272 272 271 272 272 273 274 275 275 276 275 271 262 253 248 244 241 238 235 233 231 234 235 231 231 231 232 235 238 240 240 239 240 238 234 229 228 229 231 229 222 212 209 204 196 203 208 205 211 211 209 207 206 207 207 208 205 204 204 206 206
252 255 259 261 265 268 272 273 274 276 278 281 280 282 285 285 283 282 281 279 277 275 274 274 272 271 271 271 271 272 272 272 272 274 272 266 256 246 243 242 240 239 239 240 238 237 239 238 236 235 235 235 236 239 240 240 239 239 237 234 231 229 230 230 228 218 214 208 195 201 207 204 210 212 212 211 208 207 209 210 208 207 207 209 209
253 256 258 260 264 267 269 273 276 278 279 281 283 285 287 286 284 282 279 277 276 276 275 273 271 269 270 270 270 270 270 270 270 271 267 259 250 243 243 243 242 242 243 245 245 242 240 241 241 241 240 238 237 238 241 242 241 239 237 236 234 232 231 231 231 223 218 211 198 202 205 203 208 212 212 214 212 210 209 211 211 209 208 210 212
252 254 257 259 262 264 269 274 276 278 280 283 286 287 285 283 282 280 276 274 274 274 273 270 269 269 271 272 271 271 270 270 269 267 262 256 249 243 243 244 245 245 246 248 249 247 244 243 244 245 244 243 241 240 241 243 243 242 239 236 235 235 234 233 231 227 224 214 204 206 206 203 206 210 212 215 216 214 211 212 213 211 210 210 213
251 252 255 258 262 267 271 275 276 279 282 283 286 286 283 280 280 277 272 271 271 271 271 269 269 271 272 274 273 271 270 268 267 265 259 254 251 247 245 245 246 246 248 249 250 251 251 249 248 249 249 247 245 243 241 242 243 242 241 239 237 235 236 236 234 230 226 215 209 210 210 205 206 209 211 215 217 217 214 213 214 213 212 210 211
248 250 254 261 267 272 275 277 280 282 283 283 284 285 283 282 279 274 271 270 270 271 270 269 273 274 271 270 270 266 265 264 264 263 257 254 254 251 249 246 246 247 248 249 250 253 254 255 254 253 253 251 249 246 243 240 241 241 241 241 239 236 236 237 236 234 227 217 213 212 214 211 208 210 211 214 217 218 217 214 215 215 213 212 211
239 247 255 264 268 271 276 279 283 285 286 286 284 284 284 283 282 277 274 271 271 271 269 269 274 277 271 266 268 267 264 261 260 260 255 251 252 252 250 247 246 245 246 248 250 253 255 256 257 256 255 254 252 249 246 242 240 240 240 240 239 238 236 236 236 235 229 223 220 215 215 214 211 211 211 213 217 220 221 219 219 219 218 215 212
230 247 256 266 272 275 277 280 284 285 286 286 285 285 284 285 284 279 276 273 271 270 269 270 272 275 274 269 268 269 266 259 257 260 257 249 250 251 248 246 244 244 245 247 250 253 255 256 258 259 258 256 255 252 249 245 241 241 241 240 239 238 238 237 237 236 228 226 230 223 219 218 215 213 211 212 215 219 222 222 222 224 224 222 218
233 250 261 268 276 281 282 284 285 286 286 287 288 287 287 287 284 279 277 275 270 266 268 270 269 270 275 272 264 263 268 264 258 262 262 255 250 249 245 243 243 243 245 247 250 253 256 258 260 260 260 258 256 254 251 245 242 242 243 242 240 239 239 239 237 237 228 224 232 230 224 221 218 215 213 212 214 217 220 220 222 224 226 226 224
244 255 266 270 276 281 283 286 286 286 288 288 289 287 287 289 286 281 279 277 270 265 268 271 269 270 273 273 265 261 267 268 261 262 264 259 250 245 243 243 243 243 244 247 250 253 256 259 260 259 259 258 256 254 251 247 243 243 244 243 241 239 239 239 238 239 231 224 230 232 228 224 221 218 215 214 214 216 218 219 220 222 224 225 226
277 264 269 276 280 284 284 287 286 286 286 287 287 285 287 289 287 284 279 276 273 270 270 270 270 269 270 271 268 263 264 264 261 257 256 258 260 254 246 243 240 240 244 249 251 252 253 255 257 256 255 255 255 254 252 249 245 244 245 244 243 240 239 240 239 241 235 226 228 231 231 228 225 221 217 217 217 217 217 219 220 221 223 224 226
298 272 278 284 288 292 289 290 287 284 283 284 287 286 287 287 285 283 279 275 275 276 275 273 271 270 271 271 267 263 261 260 260 258 255 258 263 255 247 246 242 240 242 247 251 250 251 252 254 255 254 253 252 251 250 249 246 244 245 245 244 241 240 240 241 243 237 229 229 229 231 231 228 225 220 219 218 218 218 219 220 221 222 223 225
305 289 292 294 294 292 290 292 288 285 283 282 285 286 284 281 280 280 279 277 277 279 280 277 274 272 274 275 266 261 260 258 261 263 260 259 258 255 252 251 244 242 242 244 249 247 247 249 252 255 255 255 253 249 245 245 246 244 244 243 242 241 241 240 240 242 238 231 230 229 230 232 231 229 225 221 220 219 219 220 220 222 222 223 224
301 299 301 301 300 291 289 295 291 290 290 287 288 290 287 281 279 280 282 282 280 280 281 278 276 275 276 278 270 263 262 261 262 263 261 258 258 260 257 247 242 244 244 245 250 249 247 248 249 253 255 257 257 251 244 242 244 244 243 242 242 242 241 241 240 242 240 234 233 230 229 232 233 232 229 226 223 220 220 220 221 222 223 224 225
294 299 302 303 303 295 290 293 294 295 297 296 294 294 291 286 284 284 284 284 282 282 280 277 276 275 274 274 271 266 264 264 268 268 267 263 261 262 256 249 249 252 252 253 256 253 253 254 251 251 253 257 259 253 244 240 241 243 242 241 242 243 243 242 241 241 240 237 235 231 229 232 234 235 234 231 227 224 221 221 222 224 224 225 226
287 295 299 299 299 296 292 290 291 293 296 298 299 299 293 289 291 290 288 285 284 285 283 277 274 271 271 270 267 265 264 263 269 271 269 267 265 265 264 263 263 265 265 263 262 258 260 261 255 251 254 259 263 258 248 241 241 244 242 240 240 241 242 242 241 241 240 236 234 233 230 230 233 237 238 235 232 228 224 222 223 224 226 226 227
281 290 294 295 295 294 294 291 291 291 292 295 298 301 297 292 293 294 293 288 286 288 288 284 278 275 273 270 265 261 261 260 263 265 266 270 271 270 273 275 274 273 272 270 269 267 268 261 251 255 262 268 272 267 256 246 245 246 245 242 239 239 241 242 242 241 239 236 233 234 232 229 231 236 239 238 235 232 228 224 224 225 226 227 228
278 288 290 292 294 292 293 294 295 295 295 296 298 301 298 293 291 292 292 288 285 286 288 285 280 276 272 269 264 260 260 262 264 267 269 273 277 277 277 277 275 275 274 274 273 271 272 259 250 259 266 269 273 270 264 256 253 252 249 246 242 239 239 240 241 240 238 236 234 233 233 231 230 234 238 238 236 234 231 228 226 226 226 228 229
278 285 286 288 290 290 291 293 294 295 295 297 299 300 298 295 292 290 291 289 285 282 284 284 281 277 272 269 267 265 265 268 270 273 274 276 281 282 280 278 275 273 271 270 269 269 268 261 258 266 266 265 266 266 267 263 261 260 257 252 246 242 240 240 240 239 237 237 237 235 233 230 230 232 235 237 237 235 233 231 229 228 228 228 229
278 282 284 285 287 288 289 291 292 292 292 291 294 296 297 295 294 293 292 292 289 285 283 283 284 281 277 274 273 274 274 276 277 276 275 276 279 280 280 280 279 279 278 275 273 272 270 267 269 272 269 265 263 263 264 262 262 263 262 259 252 245 242 241 242 240 237 237 240 240 235 230 229 231 233 235 238 237 234 233 231 230 230 230 230
277 280 282 282 283 285 286 289 290 289 287 285 286 290 293 293 292 292 292 293 292 290 287 285 285 284 281 276 274 275 275 278 281 281 279 277 276 278 280 281 282 283 283 283 283 279 275 275 276 275 272 269 267 267 265 262 262 262 264 262 255 247 241 240 242 242 241 242 245 246 241 231 227 228 231 234 236 236 236 234 233 232 231 231 231
276 278 279 279 280 283 285 287 286 284 281 278 279 283 286 288 289 290 290 291 290 289 288 287 286 285 283 280 276 273 272 274 278 281 282 281 279 280 281 282 284 284 281 282 284 282 281 280 278 275 273 272 271 270 268 266 264 266 270 268 258 250 243 239 239 241 243 245 248 249 248 238 227 225 227 231 232 232 234 235 235 234 233 232 232
275 276 276 278 280 282 283 282 281 279 276 273 275 279 282 284 285 286 287 289 289 288 287 286 285 284 283 283 281 277 275 274 276 279 281 281 281 280 280 281 283 281 280 282 282 281 283 281 277 274 272 272 273 273 270 267 267 268 270 269 264 257 253 247 244 243 242 243 245 247 248 243 233 227 225 228 230 231 233 234 235 235 235 233 233
273 274 276 278 280 281 279 277 277 277 276 276 277 280 282 283 283 284 285 286 287 287 286 285 284 282 282 282 282 280 278 277 277 279 279 280 280 279 279 279 280 279 280 282 281 280 280 278 276 274 273 273 273 272 270 267 267 267 263 262 264 261 259 256 253 249 244 241 242 244 245 243 238 232 229 228 228 231 234 235 235 236 235 234 233
272 273 277 278 278 278 275 274 275 276 278 279 281 284 286 286 285 285 286 285 285 285 285 285 283 282 282 281 281 280 279 278 278 279 279 279 279 278 277 277 278 279 278 278 277 276 275 273 274 273 271 271 270 270 270 267 266 266 263 260 260 259 257 255 254 255 252 244 241 242 243 243 240 235 234 232 230 231 234 236 238 237 236 235 234
270 272 275 276 275 274 273 274 276 277 280 283 286 288 290 290 288 287 286 286 284 284 284 283 282 282 281 281 281 281 280 280 279 279 279 279 277 277 277 276 276 277 277 275 274 273 272 272 272 270 268 267 269 269 269 268 266 264 263 260 259 260 261 259 258 259 262 257 248 244 241 240 240 236 235 236 236 235 235 237 240 240 238 238 237
265 270 272 273 275 274 274 275 277 278 281 286 289 291 293 292 291 290 288 286 283 282 281 281 280 280 280 280 280 280 280 280 279 279 279 278 277 277 277 276 275 275 275 274 274 273 272 271 270 269 268 266 267 267 265 265 266 264 262 262 261 261 263 263 262 261 262 261 256 254 250 242 239 236 234 236 238 239 239 239 240 242 241 240 240
261 266 270 274 275 276 277 278 280 282 283 287 290 291 292 293 293 293 290 287 283 280 279 278 278 277 277 278 278 278 278 278 278 278 278 277 277 277 276 275 275 275 274 273 272 271 270 269 269 269 268 266 264 264 264 262 262 262 263 264 265 265 264 263 265 265 264 261 257 257 259 249 240 238 237 238 239 240 241 241 241 242 242 242 242
256 266 270 273 276 277 280 281 282 284 284 287 290 291 292 293 293 294 292 288 284 280 278 276 276 275 275 275 276 276 276 277 277 276 276 276 275 275 275 274 273 273 272 271 270 269 269 267 266 266 267 267 265 265 265 262 262 264 266 267 267 267 266 264 265 267 265 264 261 260 261 254 243 240 240 241 242 242 242 242 243 243 243 244 244
248 262 269 271 276 280 282 283 284 285 287 288 290 291 293 294 294 294 293 290 285 281 278 276 275 273 273 274 275 276 276 276 276 276 276 275 274 273 273 273 272 271 271 270 269 268 268 267 266 265 265 268 268 268 267 266 265 266 266 266 265 264 265 265 264 265 266 266 267 266 262 256 246 240 240 241 243 246 247 245 245 244 243 243 244
243 255 267 273 277 281 282 283 286 287 288 289 291 292 293 295 296 296 295 292 287 283 279 277 275 273 273 273 274 276 277 277 277 277 276 275 274 273 271 271 271 271 270 270 269 268 268 267 267 265 265 267 269 269 269 268 267 265 264 263 262 262 262 264 264 266 268 266 264 266 264 257 247 240 240 242 243 247 250 251 249 246 242 242 242
246 256 267 276 278 281 282 284 286 288 289 290 292 294 295 296 298 298 296 293 287 282 279 277 275 273 272 272 273 274 276 277 277 277 277 276 274 273 271 270 270 270 270 270 270 269 268 268 268 267 266 266 268 268 268 268 268 265 263 263 263 262 261 262 264 266 268 265 263 266 266 260 249 241 242 248 249 247 248 249 250 248 243 242 243
251 264 268 276 277 279 281 283 285 286 288 291 293 295 296 298 300 299 295 291 285 280 276 274 273 272 271 271 271 272 273 275 275 275 275 274 274 273 272 271 270 270 270 270 270 270 269 268 268 268 267 266 267 268 267 266 266 264 263 264 264 263 262 262 263 263 264 265 267 269 267 265 260 248 243 249 253 251 249 247 250 250 245 241 242
260 272 273 276 276 277 278 280 282 284 287 290 292 294 295 297 298 295 290 285 281 277 273 272 271 270 270 270 270 271 272 273 274 274 274 273 273 273 273 272 272 271 271 272 272 272 271 269 268 268 267 266 267 268 269 267 264 262 261 263 264 264 264 263 263 263 263 265 268 267 265 266 269 262 253 251 251 251 251 250 253 255 249 242 243
274 276 275 276 274 275 276 276 279 282 285 288 290 292 293 295 294 289 283 277 274 272 270 269 268 268 268 269 270 271 272 273 274 275 274 274 273 273 273 274 273 273 272 273 274 274 274 272 271 269 267 266 266 267 269 269 266 262 260 261 263 265 265 264 263 263 263 264 265 265 264 265 267 267 266 264 259 255 254 253 255 258 254 245 242
Height
5849 5849 5848 5848 5848 5848 5849 5849 5850 5850 5850 5850 5850 5850 5850 5850 5850 5849 5849 5849 5848 5848 5847 5847 5846 5846 5845 5845 5844 5843 5843 5842 5841 5840 5839 5839 5839 5839 5839 5839 5840 5840 5840 5840 5841 5840 5841 5841 5841 5840 5841 5841 5841 5841 5842 5842 5842 5842 5843 5843 5844 5845 5845 5846 5847 5848 5848 5849 5850 5850 5850 5851 5851 5851 5851 5851 5852 5852 5852 5853 5853 5854 5854 5854 5855
5846 5846 5846 5846 5846 5847 5847 5848 5848 5848 5849 5849 5849 5848 5848 5848 5848 5848 5848 5847 5847 5847 5846 5846 5845 5845 5844 5843 5843 5842 5841 5841 5840 5839 5838 5838 5838 5838 5838 5838 5838 5839 5839 5839 5840 5840 5840 5840 5840 5840 5840 5840 5840 5841 5841 5841 5841 5842 5842 5843 5844 5844 5845 5845 5847 5848 5849 5849 5850 5850 5851 5851 5851 5851 5851 5852 5852 5852 5853 5853 5854 5854 5855 5855 5855
5845 5845 5844 5844 5845 5845 5845 5846 5846 5847 5847 5847 5847 5847 5847 5847 5847 5847 5846 5846 5846 5845 5845 5845 5844 5843 5843 5842 5842 5841 5840 5840 5839 5838 5838 5837 5836 5836 5837 5837 5837 5838 5838 5838 5839 5839 5839 5839 5839 5839 5839 5840 5840 5840 5841 5841 5841 5842 5842 5843 5843 5844 5844 5845 5847 5848 5849 5850 5850 5851 5851 5851 5851 5851 5851 5852 5852 5853 5853 5853 5854 5855 5855 5855 5855
5843 5842 5843 5843 5843 5843 5844 5844 5845 5845 5845 5845 5845 5845 5846 5845 5845 5845 5845 5844 5844 5844 5844 5843 5843 5842 5841 5841 5840 5840 5839 5838 5838 5837 5837 5836 5836 5835 5836 5836 5836 5837 5837 5837 5838 5838 5838 5839 5839 5839 5839 5839 5840 5840 5840 5841 5841 5841 5842 5842 5843 5843 5844 5846 5847 5847 5848 5850 5850 5851 5851 5851 5851 5851 5852 5852 5852 5853 5853 5854 5854 5855 5855 5855 5855
5841 5840 5841 5841 5841 5841 5842 5843 5843 5844 5844 5844 5844 5844 5844 5844 5844 5843 5843 5843 5843 5843 5842 5842 5841 5841 5840 5840 5839 5838 5837 5837 5836 5836 5836 5835 5835 5835 5834 5835 5835 5836 5836 5837 5837 5837 5838 5838 5838 5839 5839 5839 5839 5840 5840 5840 5841 5841 5841 5842 5842 5843 5844 5846 5846 5847 5848 5849 5850 5851 5851 5851 5851 5852 5852 5852 5852 5853 5853 5854 5854 5855 5855 5855 5856
5838 5838 5838 5839 5839 5840 5841 5842 5842 5842 5842 5842 5842 5842 5842 5842 5842 5842 5841 5841 5841 5841 5841 5840 5840 5839 5839 5838 5837 5837 5836 5835 5835 5835 5835 5834 5834 5834 5834 5834 5834 5834 5835 5836 5836 5837 5837 5837 5838 5838 5838 5838 5839 5839 5840 5840 5840 5841 5841 5841 5842 5843 5844 5845 5846 5847 5848 5849 5850 5850 5851 5851 5851 5852 5852 5852 5852 5853 5853 5854 5854 5855 5855 5855 5856
5836 5836 5836 5837 5837 5839 5840 5840 5841 5841 5841 5840 5840 5840 5840 5840 5840 5840 5839 5839 5839 5839 5839 5839 5838 5838 5837 5836 5836 5835 5834 5834 5833 5833 5833 5833 5833 5833 5833 5833 5833 5833 5834 5834 5835 5836 5836 5837 5837 5838 5838 5838 5838 5839 5839 5840 5840 5840 5840 5841 5841 5843 5844 5845 5846 5846 5847 5848 5849 5850 5851 5851 5851 5852 5852 5852 5852 5852 5853 5854 5854 5855 5855 5856 5856
5833 5834 5835 5835 5836 5837 5838 5839 5839 5839 5839 5838 5838 5838 5838 5838 5838 5838 5838 5838 5838 5838 5837 5837 5837 5836 5835 5835 5834 5833 5833 5832 5832 5832 5831 5831 5831 5831 5831 5831 5831 5832 5832 5833 5834 5835 5835 5836 5837 5837 5837 5837 5838 5838 5839 5839 5839 5840 5840 5840 5841 5842 5843 5844 5845 5846 5847 5848 5849 5850 5850 5851 5851 5852 5852 5852 5852 5852 5853 5853 5854 5854 5855 5855 5856
5832 5832 5833 5834 5835 5836 5836 5837 5837 5837 5837 5837 5837 5836 5836 5836 5836 5836 5836 5836 5836 5836 5836 5835 5835 5834 5834 5833 5832 5831 5831 5831 5831 5830 5830 5830 5830 5830 5830 5830 5830 5831 5831 5832 5833 5834 5835 5835 5836 5836 5836 5837 5837 5837 5838 5838 5838 5839 5839 5839 5840 5841 5842 5843 5845 5845 5846 5847 5848 5849 5850 5850 5851 5851 5852 5852 5852 5852 5853 5853 5854 5854 5855 5855 5856
5831 5831 5831 5832 5833 5834 5834 5835 5835 5835 5835 5835 5835 5834 5834 5834 5834 5834 5834 5834 5834 5834 5834 5833 5833 5833 5832 5831 5830 5830 5829 5829 5829 5829 5829 5828 5828 5828 5828 5828 5829 5829 5830 5831 5832 5833 5834 5834 5835 5835 5835 5836 5837 5837 5837 5838 5838 5838 5839 5839 5840 5841 5842 5843 5844 5845 5846 5847 5847 5848 5849 5850 5850 5851 5851 5852 5852 5852 5853 5853 5854 5854 5855 5855 5856
5829 5829 5829 5830 5831 5831 5832 5832 5833 5833 5833 5833 5833 5832 5832 5832 5832 5832 5832 5832 5832 5832 5832 5832 5831 5831 5830 5829 5828 5828 5828 5828 5828 5827 5827 5827 5827 5827 5827 5827 5827 5828 5829 5830 5831 5832 5833 5833 5834 5834 5834 5835 5836 5836 5837 5837 5837 5838 5838 5838 5839 5840 5841 5842 5843 5845 5846 5846 5847 5848 5849 5850 5850 5851 5851 5851 5852 5852 5853 5853 5854 5854 5855 5855 5856
5826 5826 5826 5827 5828 5829 5829 5830 5831 5831 5831 5830 5830 5830 5830 5830 5830 5830 5830 5830 5830 5830 5830 5830 5829 5829 5828 5827 5826 5826 5826 5826 5826 5826 5826 5826 5826 5826 5826 5826 5826 5827 5828 5829 5830 5831 5832 5832 5833 5833 5833 5834 5835 5836 5836 5836 5837 5837 5837 5838 5839 5840 5840 5841 5842 5843 5844 5845 5847 5848 5848 5849 5849 5850 5851 5851 5852 5853 5853 5853 5854 5854 5855 5855 5855
5824 5824 5824 5825 5826 5827 5827 5828 5828 5829 5829 5828 5828 5828 5828 5828 5828 5828 5828 5828 5828 5828 5828 5828 5827 5827 5826 5825 5825 5824 5824 5824 5824 5824 5824 5825 5825 5825 5825 5825 5825 5826 5827 5828 5829 5830 5831 5831 5832 5832 5832 5833 5834 5835 5835 5836 5836 5837 5837 5838 5839 5839 5839 5840 5841 5842 5844 5844 5846 5847 5847 5848 5849 5849 5850 5851 5852 5853 5853 5853 5854 5854 5854 5855 5855
5821 5821 5822 5823 5823 5824 5825 5826 5826 5826 5826 5826 5826 5826 5826 5826 5826 5826 5826 5826 5826 5826 5826 5826 5825 5824 5824 5823 5823 5822 5822 5822 5823 5823 5823 5823 5823 5823 5823 5824 5824 5825 5826 5827 5827 5828 5829 5830 5831 5831 5831 5832 5833 5834 5834 5835 5836 5836 5836 5837 5838 5838 5839 5839 5840 5842 5843 5843 5845 5845 5846 5847 5848 5849 5850 5851 5852 5852 5852 5853 5854 5854 5854 5855 5855
5818 5818 5819 5820 5821 5822 5823 5823 5824 5824 5824 5824 5824 5824 5824 5824 5824 5824 5824 5824 5824 5824 5824 5823 5823 5822 5821 5821 5820 5820 5820 5821 5821 5822 5822 5822 5822 5822 5822 5822 5823 5823 5825 5826 5826 5827 5828 5829 5829 5830 5830 5830 5831 5832 5833 5834 5835 5835 5836 5837 5837 5838 5838 5839 5840 5841 5842 5843 5845 5845 5845 5847 5848 5849 5850 5850 5851 5851 5852 5852 5853 5854 5854 5855 5855
5815 5816 5817 5818 5819 5820 5820 5820 5821 5821 5822 5822 5822 5822 5822 5822 5822 5822 5822 5822 5821 5821 5821 5820 5820 5819 5818 5818 5818 5818 5819 5819 5820 5820 5821 5821 5821 5821 5821 5821 5822 5822 5823 5824 5825 5826 5827 5828 5828 5829 5829 5829 5830 5831 5832 5833 5833 5834 5834 5835 5836 5837 5837 5838 5839 5840 5840 5842 5844 5845 5845 5847 5847 5848 5849 5850 5850 5851 5851 5852 5853 5853 5854 5854 5855
5814 5814 5815 5816 5816 5817 5817 5817 5818 5818 5819 5819 5819 5819 5820 5820 5820 5820 5820 5819 5819 5819 5818 5817 5817 5816 5816 5816 5816 5817 5817 5818 5818 5819 5819 5819 5820 5820 5820 5821 5821 5821 5822 5823 5824 5825 5825 5826 5827 5827 5828 5828 5829 5830 5830 5831 5832 5833 5833 5834 5835 5835 5836 5837 5838 5839 5840 5840 5844 5845 5845 5846 5847 5848 5849 5849 5850 5850 5851 5851 5852 5853 5853 5854 5855
5811 5812 5812 5813 5814 5814 5814 5814 5815 5815 5816 5817 5817 5817 5817 5818 5818 5818 5818 5817 5817 5816 5816 5815 5814 5813 5813 5814 5814 5815 5816 5816 5816 5817 5818 5818 5818 5819 5819 5820 5820 5820 5821 5821 5822 5823 5824 5825 5825 5826 5826 5827 5827 5828 5829 5830 5831 5831 5832 5833 5833 5834 5835 5836 5837 5839 5839 5840 5843 5843 5844 5846 5846 5847 5848 5848 5849 5850 5850 5851 5852 5852 5853 5854 5854
5808 5809 5809 5809 5810 5811 5811 5812 5812 5813 5814 5815 5815 5816 5816 5816 5816 5816 5816 5815 5815 5814 5813 5811 5810 5809 5810 5812 5812 5813 5814 5814 5815 5815 5816 5817 5817 5818 5818 5819 5819 5819 5819 5819 5820 5821 5822 5823 5823 5824 5825 5825 5826 5827 5827 5828 5829 5830 5831 5831 5832 5833 5834 5834 5836 5837 5838 5840 5842 5842 5842 5844 5845 5846 5847 5847 5848 5849 5850 5850 5851 5852 5853 5853 5854
5804 5805 5806 5806 5807 5808 5809 5809 5810 5811 5812 5813 5813 5814 5814 5813 5814 5814 5813 5813 5812 5811 5809 5807 5806 5807 5809 5810 5811 5812 5812 5813 5814 5814 5815 5815 5816 5816 5817 5817 5818 5818 5818 5818 5818 5819 5819 5820 5821 5822 5823 5824 5824 5825 5826 5827 5827 5828 5829 5830 5830 5831 5832 5833 5834 5836 5837 5840 5841 5840 5841 5842 5844 5845 5846 5847 5848 5848 5849 5850 5850 5851 5852 5853 5853
5799 5802 5803 5803 5804 5805 5806 5808 5808 5809 5810 5811 5811 5811 5811 5811 5811 5811 5810 5810 5809 5808 5807 5804 5803 5805 5808 5808 5809 5810 5810 5811 5812 5813 5813 5813 5814 5814 5815 5816 5816 5817 5816 5816 5816 5817 5817 5818 5819 5820 5821 5822 5823 5824 5824 5825 5826 5827 5827 5828 5829 5830 5831 5832 5833 5835 5837 5839 5839 5840 5840 5841 5843 5844 5845 5846 5847 5847 5848 5849 5849 5850 5851 5852 5852
5794 5799 5800 5800 5802 5803 5804 5805 5806 5807 5808 5808 5809 5809 5809 5809 5808 5808 5808 5807 5807 5806 5805 5802 5801 5805 5807 5806 5806 5807 5807 5808 5810 5810 5811 5811 5812 5813 5813 5814 5814 5815 5815 5815 5814 5814 5815 5816 5817 5818 5819 5820 5821 5822 5822 5823 5824 5825 5826 5826 5827 5828 5829 5830 5832 5833 5836 5838 5838 5838 5839 5840 5841 5842 5844 5845 5845 5846 5847 5848 5848 5849 5850 5851 5852
5791 5796 5798 5799 5800 5802 5803 5803 5805 5805 5805 5806 5806 5806 5806 5806 5806 5806 5806 5806 5806 5804 5802 5800 5800 5803 5804 5804 5804 5805 5805 5806 5807 5807 5808 5809 5810 5810 5811 5811 5812 5813 5813 5813 5812 5812 5813 5813 5814 5816 5817 5818 5819 5820 5821 5821 5822 5823 5824 5824 5825 5826 5827 5828 5829 5831 5834 5837 5836 5836 5837 5839 5840 5841 5842 5843 5844 5845 5846 5847 5848 5848 5849 5850 5851
5789 5794 5796 5798 5799 5801 5801 5802 5803 5803 5802 5802 5803 5803 5803 5803 5803 5803 5804 5803 5803 5802 5799 5797 5799 5800 5800 5802 5803 5803 5803 5804 5805 5805 5805 5806 5808 5808 5809 5809 5810 5811 5811 5811 5811 5811 5811 5812 5812 5814 5815 5816 5817 5818 5819 5820 5820 5821 5822 5823 5823 5824 5825 5826 5827 5829 5833 5835 5835 5835 5836 5837 5838 5839 5840 5841 5843 5844 5845 5846 5847 5848 5849 5850 5850
5786 5791 5794 5796 5797 5798 5799 5799 5800 5800 5799 5799 5800 5800 5800 5800 5800 5800 5800 5799 5800 5799 5796 5795 5798 5799 5797 5799 5801 5801 5801 5802 5803 5803 5803 5803 5805 5806 5807 5808 5809 5810 5810 5810 5810 5810 5810 5811 5811 5812 5813 5814 5815 5816 5817 5817 5818 5819 5820 5821 5821 5823 5823 5824 5825 5826 5831 5833 5833 5834 5835 5835 5836 5837 5838 5839 5841 5842 5843 5845 5846 5847 5848 5849 5850
5786 5791 5792 5794 5796 5797 5797 5796 5796 5796 5796 5796 5796 5797 5798 5798 5797 5796 5796 5796 5797 5796 5793 5793 5796 5797 5796 5797 5798 5799 5799 5800 5801 5802 5802 5802 5803 5805 5806 5807 5808 5809 5809 5809 5809 5809 5809 5809 5809 5809 5810 5811 5813 5814 5815 5815 5817 5817 5818 5819 5820 5821 5821 5822 5823 5824 5828 5831 5831 5831 5833 5834 5834 5835 5836 5837 5839 5840 5841 5843 5844 5845 5846 5847 5848
5787 5791 5791 5794 5795 5796 5796 5795 5794 5794 5794 5794 5794 5794 5795 5796 5794 5794 5793 5793 5793 5793 5792 5793 5795 5795 5795 5795 5796 5796 5797 5798 5799 5800 5801 5802 5802 5804 5805 5806 5806 5807 5808 5808 5807 5807 5807 5807 5807 5807 5807 5808 5809 5811 5812 5813 5814 5815 5816 5817 5818 5819 5819 5819 5821 5822 5826 5828 5828 5829 5830 5832 5833 5833 5834 5835 5837 5838 5839 5840 5842 5844 5845 5846 5847
5783 5789 5790 5792 5794 5794 5794 5794 5792 5791 5792 5791 5791 5792 5793 5793 5793 5793 5792 5792 5791 5790 5790 5791 5792 5792 5793 5793 5793 5794 5795 5796 5797 5799 5800 5800 5801 5801 5803 5804 5805 5805 5806 5806 5805 5805 5805 5805 5805 5804 5805 5805 5806 5808 5809 5810 5812 5813 5814 5815 5816 5817 5817 5818 5818 5819 5823 5826 5826 5827 5828 5829 5831 5832 5832 5833 5835 5836 5837 5838 5840 5842 5843 5844 5845
5780 5785 5788 5790 5792 5793 5791 5791 5791 5790 5790 5790 5790 5792 5793 5792 5792 5792 5791 5791 5790 5787 5787 5788 5788 5789 5790 5791 5792 5792 5793 5794 5795 5797 5798 5799 5799 5800 5801 5802 5802 5802 5802 5803 5802 5802 5802 5802 5802 5802 5802 5803 5804 5805 5806 5807 5809 5810 5811 5812 5813 5814 5815 5816 5816 5817 5820 5822 5823 5824 5826 5827 5828 5830 5831 5831 5832 5834 5835 5836 5838 5839 5841 5842 5842
5781 5783 5786 5787 5789 5790 5790 5789 5788 5787 5787 5787 5787 5788 5789 5790 5790 5790 5789 5789 5788 5786 5785 5786 5786 5787 5787 5788 5790 5791 5791 5792 5794 5795 5796 5797 5797 5798 5799 5799 5799 5798 5798 5799 5798 5799 5799 5799 5799 5799 5800 5801 5801 5802 5803 5804 5805 5807 5809 5810 5810 5811 5812 5813 5814 5814 5816 5819 5820 5822 5823 5824 5826 5827 5829 5829 5830 5831 5833 5834 5836 5837 5838 5839 5840
5783 5783 5784 5785 5785 5786 5787 5786 5785 5784 5783 5783 5783 5783 5784 5785 5785 5786 5787 5788 5787 5785 5784 5785 5785 5785 5785 5786 5788 5789 5790 5791 5792 5793 5794 5794 5795 5795 5796 5796 5795 5794 5794 5796 5796 5796 5796 5796 5796 5797 5798 5798 5799 5799 5800 5801 5802 5804 5806 5807 5808 5809 5810 5810 5812 5812 5813 5816 5817 5819 5821 5822 5823 5825 5826 5827 5828 5829 5830 5832 5833 5834 5836 5837 5838
5784 5783 5784 5784 5784 5783 5784 5784 5783 5782 5781 5781 5781 5780 5780 5780 5780 5782 5783 5785 5785 5783 5782 5783 5784 5785 5785 5785 5787 5788 5789 5790 5791 5792 5792 5792 5792 5792 5792 5792 5792 5791 5792 5793 5794 5795 5795 5794 5795 5796 5798 5797 5797 5797 5798 5799 5800 5801 5802 5803 5804 5805 5806 5807 5808 5808 5809 5812 5815 5816 5818 5820 5821 5822 5824 5825 5826 5827 5828 5829 5830 5832 5833 5834 5836
5784 5784 5783 5783 5783 5782 5781 5781 5781 5781 5780 5779 5780 5779 5778 5778 5778 5778 5780 5782 5783 5782 5780 5781 5782 5783 5784 5784 5786 5787 5788 5790 5791 5791 5791 5791 5790 5790 5790 5791 5790 5790 5790 5791 5792 5793 5793 5793 5794 5796 5797 5796 5796 5796 5797 5797 5798 5799 5800 5800 5801 5802 5803 5804 5805 5805 5806 5809 5812 5813 5815 5817 5818 5819 5821 5822 5823 5824 5825 5827 5828 5829 5830 5832 5833
5782 5782 5782 5782 5782 5782 5781 5779 5779 5778 5777 5777 5777 5777 5776 5777 5777 5777 5778 5780 5781 5781 5780 5780 5781 5782 5783 5783 5784 5786 5787 5788 5789 5789 5789 5789 5789 5789 5790 5790 5789 5789 5788 5789 5790 5791 5791 5791 5792 5794 5794 5794 5794 5794 5795 5796 5796 5797 5797 5797 5798 5798 5800 5801 5801 5802 5803 5805 5808 5810 5812 5813 5815 5816 5818 5819 5821 5822 5823 5824 5826 5827 5828 5829 5831
5781 5781 5781 5781 5780 5780 5780 5779 5778 5777 5776 5776 5775 5775 5774 5774 5774 5775 5775 5777 5779 5779 5779 5779 5781 5781 5782 5782 5782 5784 5785 5785 5785 5785 5786 5787 5787 5787 5787 5787 5786 5786 5787 5788 5790 5790 5790 5790 5791 5792 5792 5793 5792 5792 5793 5794 5794 5794 5794 5794 5795 5795 5796 5797 5798 5799 5801 5802 5804 5806 5808 5810 5811 5813 5815 5816 5818 5819 5820 5822 5823 5825 5826 5827 5828
5779 5779 5779 5779 5779 5779 5778 5778 5777 5777 5776 5775 5775 5774 5773 5772 5772 5772 5772 5773 5774 5776 5776 5777 5778 5779 5779 5780 5780 5780 5782 5782 5783 5783 5783 5784 5784 5783 5783 5783 5783 5783 5784 5786 5789 5789 5789 5789 5790 5790 5790 5791 5791 5790 5790 5790 5790 5790 5791 5791 5791 5792 5793 5794 5795 5796 5797 5798 5799 5802 5804 5806 5808 5810 5812 5813 5815 5816 5817 5819 5820 5822 5823 5825 5826
5777 5777 5777 5777 5777 5777 5777 5777 5776 5776 5775 5774 5774 5773 5772 5771 5771 5771 5770 5770 5771 5771 5772 5773 5774 5775 5776 5777 5778 5778 5779 5779 5780 5780 5781 5781 5781 5781 5780 5779 5779 5780 5781 5782 5785 5786 5786 5787 5787 5788 5788 5789 5789 5788 5787 5787 5787 5787 5788 5788 5788 5789 5790 5791 5793 5794 5795 5796 5797 5798 5799 5802 5804 5807 5808 5810 5811 5812 5814 5816 5817 5819 5821 5822 5823
5775 5775 5774 5775 5775 5775 5776 5776 5775 5774 5773 5773 5772 5772 5771 5770 5770 5769 5769 5769 5769 5769 5769 5769 5771 5772 5773 5774 5775 5776 5777 5777 5777 5777 5778 5778 5778 5778 5777 5777 5778 5779 5780 5781 5782 5783 5783 5784 5784 5785 5785 5786 5786 5785 5784 5784 5784 5785 5787 5787 5787 5787 5787 5788 5790 5791 5793 5794 5795 5795 5796 5798 5800 5802 5805 5806 5807 5809 5811 5812 5814 5816 5818 5819 5820
5772 5772 5772 5773 5773 5774 5774 5774 5773 5772 5772 5771 5771 5771 5770 5769 5769 5768 5768 5768 5767 5767 5767 5768 5768 5769 5770 5771 5772 5773 5774 5775 5775 5775 5776 5776 5775 5776 5776 5776 5778 5779 5779 5780 5781 5781 5781 5782 5782 5783 5783 5783 5783 5783 5782 5782 5783 5785 5786 5786 5785 5785 5785 5786 5788 5789 5789 5790 5791 5792 5794 5795 5797 5799 5801 5803 5804 5806 5808 5810 5812 5813 5815 5816 5817
5769 5769 5769 5770 5771 5771 5772 5771 5771 5771 5771 5770 5770 5770 5769 5768 5768 5767 5767 5767 5766 5766 5766 5766 5767 5767 5768 5769 5769 5770 5772 5772 5773 5773 5773 5774 5774 5774 5775 5775 5775 5777 5777 5778 5779 5779 5779 5779 5780 5780 5780 5780 5780 5780 5780 5781 5781 5782 5784 5784 5784 5784 5784 5785 5786 5786 5786 5787 5788 5790 5791 5792 5794 5796 5798 5800 5802 5803 5805 5807 5809 5811 5811 5813 5814
5766 5767 5767 5767 5768 5768 5769 5769 5769 5769 5769 5769 5769 5768 5768 5767 5766 5766 5765 5765 5765 5765 5765 5765 5765 5766 5766 5767 5767 5768 5769 5769 5770 5770 5771 5771 5771 5771 5772 5773 5773 5774 5775 5776 5776 5777 5777 5777 5777 5777 5777 5778 5778 5778 5778 5779 5779 5779 5780 5781 5782 5782 5782 5783 5784 5783 5783 5784 5786 5787 5788 5790 5791 5794 5796 5798 5799 5800 5802 5804 5806 5807 5808 5810 5811
5763 5764 5764 5764 5765 5765 5766 5767 5767 5767 5767 5767 5767 5767 5766 5766 5765 5765 5764 5764 5764 5763 5763 5763 5764 5764 5765 5765 5766 5766 5766 5767 5767 5767 5768 5768 5768 5768 5769 5770 5770 5771 5772 5773 5774 5775 5775 5775 5774 5774 5775 5775 5775 5776 5776 5776 5777 5777 5778 5779 5780 5780 5780 5780 5781 5781 5781 5782 5783 5784 5785 5787 5789 5790 5793 5795 5796 5797 5799 5801 5802 5803 5805 5806 5807
5761 5761 5761 5762 5762 5762 5763 5764 5765 5765 5765 5765 5765 5765 5764 5764 5764 5763 5763 5763 5762 5762 5762 5762 5762 5762 5763 5763 5764 5764 5764 5764 5764 5765 5765 5765 5765 5766 5767 5767 5768 5768 5769 5770 5770 5771 5772 5772 5772 5772 5772 5773 5773 5773 5773 5774 5774 5775 5775 5776 5777 5778 5778 5778 5778 5779 5779 5779 5780 5781 5782 5784 5785 5787 5788 5790 5793 5794 5796 5797 5799 5800 5801 5802 5804
5758 5758 5758 5759 5759 5759 5760 5761 5762 5762 5763 5763 5763 5763 5763 5762 5762 5762 5761 5761 5761 5761 5760 5760 5761 5761 5761 5761 5762 5762 5762 5762 5762 5762 5762 5762 5762 5763 5764 5764 5765 5765 5766 5767 5767 5768 5769 5770 5770 5770 5770 5770 5770 5771 5771 5771 5772 5773 5773 5772 5774 5775 5776 5776 5776 5776 5777 5777 5778 5779 5779 5780 5782 5783 5784 5786 5789 5791 5792 5794 5795 5797 5797 5799 5801
5755 5755 5755 5756 5756 5756 5757 5759 5759 5760 5760 5761 5761 5761 5761 5761 5760 5760 5760 5759 5759 5759 5759 5759 5759 5759 5759 5760 5760 5760 5760 5760 5760 5760 5760 5760 5760 5761 5761 5761 5762 5762 5763 5764 5764 5765 5765 5767 5767 5768 5767 5767 5768 5768 5769 5769 5770 5770 5770 5770 5771 5772 5773 5774 5774 5774 5774 5775 5775 5776 5776 5777 5778 5780 5781 5783 5785 5786 5788 5790 5791 5793 5794 5796 5799
5751 5752 5752 5753 5753 5754 5754 5755 5756 5757 5757 5758 5759 5758 5759 5759 5758 5758 5757 5757 5757 5757 5757 5757 5757 5758 5758 5758 5758 5758 5758 5758 5758 5758 5758 5758 5758 5758 5758 5759 5759 5760 5760 5761 5761 5762 5763 5763 5764 5765 5765 5764 5765 5765 5766 5766 5767 5768 5767 5768 5768 5769 5770 5771 5771 5771 5772 5772 5773 5773 5774 5774 5775 5776 5777 5779 5782 5783 5785 5786 5787 5789 5791 5793 5795
5746 5748 5749 5749 5750 5751 5751 5752 5753 5754 5755 5756 5756 5756 5756 5756 5756 5756 5755 5755 5755 5755 5755 5755 5755 5756 5756 5756 5756 5756 5756 5756 5756 5756 5756 5756 5756 5756 5756 5756 5757 5757 5757 5758 5758 5759 5760 5760 5761 5762 5762 5762 5762 5762 5763 5763 5764 5765 5765 5765 5766 5767 5767 5768 5768 5769 5769 5770 5770 5771 5771 5772 5772 5773 5775 5777 5779 5780 5781 5782 5783 5784 5787 5789 5791
5742 5744 5746 5746 5747 5748 5748 5749 5750 5751 5751 5753 5754 5753 5754 5754 5754 5754 5753 5753 5753 5753 5753 5753 5753 5754 5754 5754 5754 5754 5754 5754 5754 5754 5754 5754 5754 5754 5754 5754 5754 5754 5755 5755 5755 5756 5757 5757 5758 5758 5759 5759 5759 5760 5760 5761 5761 5762 5763 5763 5764 5764 5764 5765 5766 5766 5767 5767 5768 5769 5769 5770 5770 5771 5772 5774 5775 5777 5778 5779 5779 5780 5782 5784 5785
5739 5740 5743 5743 5744 5745 5746 5747 5747 5748 5748 5749 5751 5751 5751 5751 5751 5751 5751 5751 5751 5751 5751 5751 5751 5751 5751 5752 5752 5752 5752 5752 5752 5752 5752 5752 5752 5752 5752 5752 5752 5752 5752 5752 5753 5753 5754 5755 5755 5755 5756 5756 5756 5757 5757 5758 5759 5759 5760 5760 5761 5761 5762 5763 5763 5763 5764 5764 5765 5766 5767 5767 5768 5768 5769 5770 5772 5773 5774 5775 5775 5776 5778 5779 5779
5737 5736 5740 5741 5741 5743 5743 5744 5745 5745 5745 5746 5748 5748 5748 5749 5749 5749 5749 5749 5749 5749 5749 5749 5749 5749 5749 5749 5749 5750 5750 5750 5750 5749 5750 5750 5750 5750 5750 5750 5750 5750 5750 5750 5750 5751 5751 5752 5753 5753 5753 5754 5754 5754 5754 5755 5756 5757 5757 5758 5758 5758 5759 5760 5760 5760 5760 5761 5762 5763 5764 5765 5766 5766 5766 5767 5768 5769 5770 5771 5772 5773 5774 5774 5775
5734 5734 5737 5739 5739 5740 5740 5741 5742 5743 5743 5743 5745 5745 5746 5746 5746 5746 5746 5747 5747 5747 5746 5746 5747 5747 5747 5747 5747 5747 5748 5748 5748 5747 5747 5747 5748 5748 5748 5748 5748 5748 5748 5748 5748 5749 5749 5750 5750 5751 5751 5751 5752 5752 5752 5752 5753 5754 5755 5755 5755 5755 5756 5757 5757 5757 5758 5758 5759 5760 5761 5762 5763 5763 5764 5764 5765 5766 5766 5767 5768 5769 5769 5770 5771